{"data":{"norad_id":65410,"epoch":"2026-05-24T17:51:59.396544Z","epoch_age_seconds":103935,"freshness":"FRESH","line1":"1 65410U 25192G   26144.74443746  .00052771  00000+0  16975-2 0  9992","line2":"2 65410  53.1560 238.7266 0000849  72.2689 287.8405 15.31753109 41034","mean_motion":15.31753109,"eccentricity":8.49e-5,"inclination_deg":53.156,"raan_deg":238.7266,"arg_perigee_deg":72.2689,"mean_anomaly_deg":287.8405,"bstar":0.0016975,"rev_number":4103,"period_min":94.009928332386,"perigee_km":470.00022841816,"apogee_km":471.16314085082,"semimajor_km":6848.7186846345,"source":"CELESTRAK","updated_at":"2026-05-25T13:38:20.800514Z"}}